^^
Paulen-Weather Station Historical Data
Daily Summary for May 30, 2022 Units:  English    Metric   Both
Daily Weekly Monthly Yearly Custom
  High: Low: Average:
Temperature: 51.8 °F 50 °F 51.6 °F
Dew Point: 46.4 °F 44.6 °F 45 °F
Humidity: 80% 77% 78%
Wind Speed: 11.8mph 8.1mph 10.3mph
Wind Gust: 10.6mph - -
Wind- - North
Pressure: 29.7 in 29.7 in -
Precipitation: 0 in    
Historical Graphs
 
 
Tabular Data for May 30, 2022
Time Temperature Dew Point Pressure Wind Wind Speed Wind Gust Humidity Rainfall Rate (Hourly) solar
00:04 51.8 °F 46.4 °F 29.7 in N 11.2 mph 8.7 mph 79% 0 in 0 W/m2
00:09 51.8 °F 46.4 °F 29.7 in N 9.3 mph 8.7 mph 79% 0 in 0 W/m2
00:14 51.8 °F 46.4 °F 29.7 in N 11.2 mph 10.6 mph 79% 0 in 0 W/m2
00:19 51.8 °F 46.4 °F 29.7 in N 11.2 mph 10.6 mph 79% 0 in 0 W/m2
00:24 51.8 °F 46.4 °F 29.7 in N 10.6 mph 9.3 mph 79% 0 in 0 W/m2
00:29 51.8 °F 46.4 °F 29.7 in N 10.6 mph 9.3 mph 78% 0 in 0 W/m2
00:34 51.8 °F 46.4 °F 29.7 in N 11.2 mph 8.7 mph 78% 0 in 0 W/m2
00:39 51.8 °F 44.6 °F 29.7 in N 11.2 mph 9.9 mph 78% 0 in 0 W/m2
00:44 51.8 °F 44.6 °F 29.7 in N 11.2 mph 9.3 mph 78% 0 in 0 W/m2
00:49 51.8 °F 44.6 °F 29.7 in N 10.6 mph 8.7 mph 78% 0 in 0 W/m2
00:54 51.8 °F 44.6 °F 29.7 in N 10.6 mph 8.7 mph 78% 0 in 0 W/m2
00:59 51.8 °F 44.6 °F 29.7 in N 10.6 mph 9.9 mph 77% 0 in 0 W/m2
01:04 51.8 °F 44.6 °F 29.7 in N 9.9 mph 9.3 mph 77% 0 in 0 W/m2
01:09 51.8 °F 44.6 °F 29.7 in N 10.6 mph 7.5 mph 77% 0 in 0 W/m2
01:14 51.8 °F 44.6 °F 29.7 in N 9.9 mph 8.1 mph 77% 0 in 0 W/m2
01:19 51.8 °F 44.6 °F 29.7 in N 8.7 mph 8.1 mph 77% 0 in 0 W/m2
01:24 51.8 °F 44.6 °F 29.7 in N 9.3 mph 6.8 mph 78% 0 in 0 W/m2
01:29 51.8 °F 44.6 °F 29.7 in N 8.7 mph 7.5 mph 78% 0 in 0 W/m2
01:34 51.8 °F 44.6 °F 29.7 in N 8.7 mph 7.5 mph 78% 0 in 0 W/m2
01:39 51.8 °F 44.6 °F 29.7 in N 9.9 mph 9.9 mph 77% 0 in 0 W/m2
01:44 51.8 °F 44.6 °F 29.7 in N 9.9 mph 8.7 mph 77% 0 in 0 W/m2
01:49 51.8 °F 44.6 °F 29.7 in N 8.1 mph 7.5 mph 78% 0 in 0 W/m2
01:54 51.8 °F 44.6 °F 29.7 in N 9.3 mph 7.5 mph 78% 0 in 0 W/m2
01:59 51.8 °F 44.6 °F 29.7 in N 9.9 mph 8.1 mph 78% 0 in 0 W/m2
02:04 51.8 °F 44.6 °F 29.7 in NNE 9.9 mph 9.3 mph 78% 0 in 0 W/m2
02:09 51.8 °F 44.6 °F 29.7 in N 10.6 mph 9.3 mph 78% 0 in 0 W/m2
02:14 51.8 °F 44.6 °F 29.7 in NNE 10.6 mph 8.1 mph 78% 0 in 0 W/m2
02:19 51.8 °F 44.6 °F 29.7 in N 10.6 mph 8.1 mph 78% 0 in 0 W/m2
02:24 51.8 °F 44.6 °F 29.7 in NNE 11.8 mph 10.6 mph 78% 0 in 0 W/m2
02:29 51.8 °F 44.6 °F 29.7 in N 9.9 mph 8.1 mph 78% 0 in 0 W/m2
02:34 51.8 °F 44.6 °F 29.7 in N 9.3 mph 8.7 mph 79% 0 in 0 W/m2
02:39 51.8 °F 44.6 °F 29.7 in N 8.1 mph 8.1 mph 79% 0 in 0 W/m2
02:44 51.8 °F 44.6 °F 29.7 in N 8.7 mph 8.1 mph 79% 0 in 0 W/m2
02:49 51.8 °F 44.6 °F 29.7 in N 10.6 mph 8.7 mph 79% 0 in 0 W/m2
02:54 51.8 °F 44.6 °F 29.7 in N 9.3 mph 9.9 mph 79% 0 in 0 W/m2
02:59 51.8 °F 44.6 °F 29.7 in NNE 11.2 mph 9.3 mph 79% 0 in 0 W/m2
03:04 51.8 °F 44.6 °F 29.7 in NNE 11.2 mph 9.3 mph 79% 0 in 0 W/m2
03:09 51.8 °F 44.6 °F 29.7 in NNE 11.2 mph 9.3 mph 79% 0 in 0 W/m2
03:14 51.8 °F 44.6 °F 29.7 in N 10.6 mph 8.1 mph 79% 0 in 0 W/m2
03:19 51.8 °F 44.6 °F 29.7 in NNE 11.2 mph 10.6 mph 79% 0 in 0 W/m2
03:24 51.8 °F 44.6 °F 29.7 in N 11.8 mph 9.9 mph 79% 0 in 0 W/m2
03:29 50 °F 44.6 °F 29.7 in NNE 9.9 mph 9.3 mph 79% 0 in 0 W/m2
03:34 50 °F 44.6 °F 29.7 in N 11.2 mph 8.7 mph 79% 0 in 0 W/m2
03:39 50 °F 44.6 °F 29.7 in NNE 11.2 mph 8.7 mph 79% 0 in 0 W/m2
03:44 50 °F 44.6 °F 29.7 in N 10.6 mph 8.7 mph 80% 0 in 0 W/m2
Compliments of Weather Underground - 2 mb